Regional Weather Roundup
Issued by NWS

Home | Current Version | Previous Version | Text Only | Print | Product List | Glossary On
Versions: 1 2 3 4 5 6 7 8 9 10 11 12 13 14 15 16 17 18 19 20 21 22 23 24 25 26 27 28 29 30 31 32 33 34 35 36 37 38 39 40 41 42 43 44 45 46 47 48 49 50
000
ASUS43 KDMX 020307
RWRIA

WEATHER ROUNDUP FOR IOWA
NATIONAL WEATHER SERVICE DES MOINES IA
1000 PM CDT SAT AUG 01 2015

NOTE: "FAIR" INDICATES FEW OR NO CLOUDS BELOW 12,000 FEET WITH NO
SIGNIFICANT WEATHER AND/OR OBSTRUCTIONS TO VISIBILITY.

* - THESE STATIONS ARE NOT NWS STATIONS...THUS NOT UNDER NWS
QUALITY CONTROL.  THEY ALSO DO NOT REPORT WEATHER SUCH
AS PRECIPITATION OR FOG.

IAZ001>003-012>014-020>022-031>034-043>046-020400-
   NORTHWEST IOWA

CITY           SKY/WX    TMP DP  RH WIND       PRES   REMARKS
CARROLL *      CLEAR     70  70 100 S5        29.90R
CHEROKEE *     CLEAR     70  70 100 S5        29.89R
DENISON *      CLEAR     72  70  94 S5        29.89R
LE MARS *      CLEAR     72  68  88 S7        29.88S
ORANGE CITY *  CLEAR     70  66  88 S6        29.89R
SHELDON *      CLEAR     72  68  88 S8        29.87R
SIOUX CITY     CLEAR     71  65  81 SE5       29.88S
SPENCER        CLEAR     71  66  84 S7        29.88R
STORM LAKE *   CLEAR     70  66  88 SW7       29.91R
$$

IAZ055>058-069>071-079>083-090>094-020400-
   SOUTHWEST IOWA

CITY           SKY/WX    TMP DP  RH WIND       PRES   REMARKS
ATLANTIC *     CLEAR     72  70  94 S3        29.92R
AUDUBON *      CLEAR     70  66  88 CALM      29.93S
CLARINDA *     CLEAR     73  73 100 CALM      29.94R
COUNCIL BLFS * CLEAR     75  72  88 S7        29.92R
CRESTON *      CLEAR     75  72  88 CALM      29.95R
HARLAN  *      CLEAR     70  70 100 S5        29.95R
LAMONI         PTCLDY    74  66  76 S10       29.96R
RED OAK *      CLEAR     73  73 100 CALM      29.92R
SHENANDOAH *   CLEAR     75  73  94 CALM      29.92R
$$

IAZ047>049-059>061-072>074-084-020400-
   CENTRAL IOWA

CITY           SKY/WX    TMP DP  RH WIND       PRES   REMARKS
AMES           CLEAR     72  70  93 S8        29.90R
ANKENY *       CLEAR     73  72  94 CALM      29.90S
CHARITON *     PTCLDY    77  72  83 S12       29.94R
DES MOINES     PTCLDY    79  71  76 S6        29.90R HX  82
GRINNELL*      CLEAR     73  70  88 S6        29.92S
KNOXVILLE *    CLEAR     77  72  83 S5        29.91R
MARSHALLTOWN   CLEAR     76  71  85 S6        29.90R
PELLA *        CLEAR     75  75 100 S6        29.93R
PERRY *          N/A     73  72  94 S3        29.91R
$$

IAZ004>006-015-016-023>025-035-036-020400-
   NORTH CENTRAL IOWA

CITY           SKY/WX    TMP DP  RH WIND       PRES   REMARKS
ALGONA *       CLEAR     70  68  94 SW8       29.89R
CLARION *      CLEAR     70  68  94 S8        29.89R
ESTHERVILLE    PTCLDY    70  66  87 SW9       29.87R
FORT DODGE *   CLEAR     73  66  78 S6        29.90R
MASON CITY     CLEAR     69  66  90 S5        29.89R
FOREST CITY *  CLEAR     68  68 100 S3        29.88R
IOWA FALLS *     N/A     72  70  94 S7        29.90S
$$

IAZ007>011-017>019-026>030-037>042-050>054-066-020400-
   NORTHEAST IOWA

CITY           SKY/WX    TMP DP  RH WIND       PRES   REMARKS
CEDAR RAPIDS   CLEAR     72  71  97 S3        29.91R
CHARLES CITY * CLEAR     72  72 100 S6        29.89R
CLINTON *      CLEAR     70  66  88 SW6       29.93S
DECORAH *      CLEAR     73  68  83 S7        29.87S
DUBUQUE        CLEAR     71  68  90 S7        29.91S
MONTICELLO *   CLEAR     72  70  94 S3        29.91R
OELWEIN *        N/A     73  72  94 S8        29.90S
WATERLOO       CLEAR     75  70  84 S8        29.88S
$$

IAZ064-065-067-068-078-020400-
   EAST CENTRAL IOWA

CITY           SKY/WX    TMP DP  RH WIND       PRES   REMARKS
DAVENPORT      PTCLDY    74  67  78 SW6       29.92S
IOWA CITY      CLEAR     74  71  91 S3        29.92S
MT. PLEASANT * CLEAR     75  70  83 S6        29.93S
MUSCATINE *    CLEAR     75  70  83 CALM      29.92S
QUAD CITIES    PTCLDY    74  67  78 S7        29.91S
$$

IAZ062-063-075>077-085>089-095>099-020400-
   SOUTHEAST IOWA

CITY           SKY/WX    TMP DP  RH WIND       PRES   REMARKS
BURLINGTON     CLEAR     75  72  90 S6        29.93R
FAIRFIELD *    CLEAR     77  70  78 S7        29.93R
FORT MADISON * CLEAR     75  72  88 S6        29.95S
KEOKUK *       CLEAR     79  73  83 S8        29.94R HX  82
OSKALOOSA *      N/A     73  70  88 CALM      29.93R
CENTERVILLE *  CLEAR     72  66  83 SW8       29.97R
OTTUMWA        CLEAR     74  71  91 S6        29.91R
WASHINGTON *   CLEAR     72  70  94 S6        29.94R
$$

ABBREVIATIONS USED IN REMARKS
   TC - TEMPERATURES IN CELSIUS
  WCI - WIND CHILL INDEX
   HX - HEAT INDEX
  VSB - VISIBILITY
$$



USA.gov is the U.S. government's official web portal to all federal, state and local government web resources and services.